• In Hungary
  • List of Countries
  • For 7 days
  • Water Temperature
  • Satellite Maps
  • Weather Map
  • News
  • Weather Widgets
  • user-avatar
    Login

    Hourly Weather Ust-Kenzar

    Today, 19 August, Sunday

    Time Temperature Precipitation Wind Pressure Humidity
    00:00 +15°C° 0 mm 2 mps 755 mmHg 74%
    01:00 +15°C° 0 mm 2 mps 755 mmHg 75%
    02:00 +14°C° 0 mm 2 mps 755 mmHg 76%
    03:00 +14°C° 0 mm 2 mps 755 mmHg 78%
    04:00 +14°C° 0 mm 1 mps 755 mmHg 78%
    05:00 +14°C° 0 mm 1 mps 755 mmHg 79%
    06:00 +14°C° 0 mm 1 mps 755 mmHg 80%
    07:00 +15°C° 0 mm 1 mps 755 mmHg 73%
    08:00 +18°C° 0 mm 1 mps 755 mmHg 65%
    09:00 +20°C° 0 mm 1 mps 755 mmHg 58%
    10:00 +21°C° 0 mm 1 mps 755 mmHg 53%
    11:00 +22°C° 0 mm 1 mps 755 mmHg 48%
    12:00 +24°C° 0 mm 2 mps 755 mmHg 43%
    13:00 +24°C° 0 mm 1 mps 754 mmHg 41%
    14:00 +25°C° 0 mm 1 mps 754 mmHg 40%
    15:00 +25°C° 0 mm 1 mps 754 mmHg 38%
    16:00 +25°C° 0 mm 1 mps 754 mmHg 41%
    17:00 +25°C° 0 mm 1 mps 753 mmHg 43%
    18:00 +22°C° 0 mm 0 mps 753 mmHg 46%
    19:00 +23°C° 0 mm 1 mps 753 mmHg 49%
    20:00 +21°C° 0 mm 1 mps 753 mmHg 52%
    21:00 +19°C° 0 mm 1 mps 753 mmHg 54%
    22:00 +18°C° 0 mm 1 mps 753 mmHg 56%
    23:00 +18°C° 0 mm 1 mps 753 mmHg 58%

    Tomorrow, 20 August, Monday

    Time Temperature Precipitation Wind Pressure Humidity
    00:00 +16°C° 0 mm 1 mps 753 mmHg 59%
    01:00 +16°C° 0 mm 2 mps 753 mmHg 61%
    02:00 +16°C° 0 mm 2 mps 753 mmHg 62%
    03:00 +15°C° 0 mm 2 mps 753 mmHg 63%
    04:00 +15°C° 0 mm 2 mps 753 mmHg 65%
    05:00 +15°C° 0 mm 2 mps 753 mmHg 66%
    06:00 +15°C° 0 mm 2 mps 752 mmHg 68%
    07:00 +17°C° 0 mm 2 mps 752 mmHg 62%
    08:00 +19°C° 0 mm 2 mps 752 mmHg 56%
    09:00 +21°C° 0 mm 2 mps 752 mmHg 51%
    10:00 +24°C° 0 mm 3 mps 752 mmHg 47%
    11:00 +25°C° 0 mm 3 mps 752 mmHg 44%
    12:00 +26°C° 0 mm 3 mps 752 mmHg 41%
    13:00 +27°C° 0 mm 3 mps 752 mmHg 40%
    14:00 +27°C° 0 mm 3 mps 751 mmHg 39%
    15:00 +28°C° 0 mm 3 mps 751 mmHg 39%
    16:00 +27°C° 0 mm 3 mps 751 mmHg 42%
    17:00 +27°C° 0 mm 3 mps 750 mmHg 46%
    18:00 +26°C° 0 mm 2 mps 750 mmHg 49%
    19:00 +24°C° 0 mm 2 mps 750 mmHg 52%
    20:00 +23°C° 0 mm 2 mps 750 mmHg 55%
    21:00 +20°C° 0 mm 2 mps 750 mmHg 58%
    22:00 +19°C° 0 mm 2 mps 750 mmHg 59%
    23:00 +19°C° 0 mm 2 mps 750 mmHg 60%

    Day after tomorrow, 21 August, Tuesday

    Time Temperature Precipitation Wind Pressure Humidity
    00:00 +18°C° 0 mm 3 mps 750 mmHg 61%
    01:00 +18°C° 0 mm 3 mps 750 mmHg 62%
    02:00 +17°C° 0 mm 3 mps 750 mmHg 62%
    03:00 +17°C° 0 mm 3 mps 750 mmHg 63%
    04:00 +17°C° 0 mm 3 mps 749 mmHg 64%
    05:00 +17°C° 0 mm 3 mps 749 mmHg 65%
    06:00 +16°C° 0 mm 3 mps 749 mmHg 67%
    07:00 +18°C° 0 mm 3 mps 749 mmHg 61%
    08:00 +21°C° 0 mm 4 mps 749 mmHg 56%
    09:00 +23°C° 0 mm 4 mps 749 mmHg 50%
    10:00 +25°C° 0 mm 5 mps 749 mmHg 46%
    11:00 +26°C° 0 mm 5 mps 749 mmHg 42%
    12:00 +28°C° 0 mm 6 mps 749 mmHg 38%
    13:00 +28°C° 0 mm 6 mps 748 mmHg 37%
    14:00 +29°C° 0 mm 6 mps 748 mmHg 36%
    15:00 +29°C° 0 mm 6 mps 747 mmHg 35%
    16:00 +28°C° 0 mm 5 mps 747 mmHg 39%
    17:00 +27°C° 0 mm 5 mps 747 mmHg 42%
    18:00 +27°C° 0 mm 4 mps 746 mmHg 46%
    19:00 +25°C° 0 mm 4 mps 746 mmHg 47%
    20:00 +23°C° 0 mm 4 mps 746 mmHg 48%
    21:00 +22°C° 0 mm 4 mps 746 mmHg 49%
    22:00 +22°C° 0 mm 4 mps 746 mmHg 50%
    23:00 +21°C° 0 mm 5 mps 745 mmHg 50%

    22 August, Wednesday

    Time Temperature Precipitation Wind Pressure Humidity
    00:00 +21°C° 0 mm 5 mps 745 mmHg 50%
    01:00 +20°C° 0.7 mm 4 mps 745 mmHg 58%
    02:00 +20°C° 0.7 mm 4 mps 745 mmHg 65%
    03:00 +19°C° 0.7 mm 4 mps 745 mmHg 73%
    04:00 +18°C° 0.7 mm 4 mps 746 mmHg 79%
    05:00 +18°C° 0.7 mm 4 mps 746 mmHg 84%
    06:00 +17°C° 0.7 mm 4 mps 746 mmHg 90%
    07:00 +18°C° 0 mm 4 mps 747 mmHg 82%
    08:00 +19°C° 0 mm 4 mps 747 mmHg 75%
    09:00 +19°C° 0 mm 5 mps 748 mmHg 67%
    10:00 +20°C° 0 mm 5 mps 748 mmHg 61%
    11:00 +21°C° 0 mm 5 mps 748 mmHg 55%
    12:00 +22°C° 0 mm 6 mps 749 mmHg 49%
    13:00 +22°C° 0 mm 6 mps 749 mmHg 48%
    14:00 +22°C° 0 mm 6 mps 749 mmHg 46%
    15:00 +22°C° 0 mm 6 mps 749 mmHg 45%
    16:00 +22°C° 0 mm 5 mps 750 mmHg 48%
    17:00 +21°C° 0 mm 5 mps 750 mmHg 52%
    18:00 +20°C° 0 mm 4 mps 750 mmHg 55%
    19:00 +19°C° 0 mm 4 mps 751 mmHg 58%
    20:00 +17°C° 0 mm 4 mps 751 mmHg 61%
    21:00 +16°C° 0 mm 3 mps 752 mmHg 64%
    22:00 +14°C° 0 mm 3 mps 752 mmHg 64%
    23:00 +13°C° 0 mm 3 mps 752 mmHg 64%

    23 August, Thursday

    Time Temperature Precipitation Wind Pressure Humidity
    00:00 +13°C° 0 mm 3 mps 753 mmHg 63%
    01:00 +12°C° 0 mm 3 mps 753 mmHg 64%
    02:00 +13°C° 0 mm 2 mps 753 mmHg 65%
    03:00 +12°C° 0 mm 2 mps 754 mmHg 66%
    04:00 +12°C° 0 mm 2 mps 754 mmHg 68%
    05:00 +12°C° 0 mm 2 mps 754 mmHg 69%
    06:00 +12°C° 0 mm 2 mps 754 mmHg 70%
    07:00 +14°C° 0 mm 2 mps 755 mmHg 64%
    08:00 +16°C° 0 mm 2 mps 755 mmHg 57%
    09:00 +19°C° 0 mm 1 mps 755 mmHg 51%
    10:00 +19°C° 0 mm 2 mps 755 mmHg 47%
    11:00 +20°C° 0 mm 2 mps 755 mmHg 43%
    12:00 +21°C° 0 mm 2 mps 755 mmHg 40%
    13:00 +21°C° 0 mm 2 mps 754 mmHg 39%
    14:00 +23°C° 0 mm 2 mps 754 mmHg 38%
    15:00 +23°C° 0 mm 2 mps 754 mmHg 37%
    16:00 +23°C° 0 mm 2 mps 754 mmHg 40%
    17:00 +22°C° 0 mm 1 mps 754 mmHg 44%
    18:00 +22°C° 0 mm 1 mps 754 mmHg 47%
    19:00 +20°C° 0 mm 1 mps 754 mmHg 50%
    20:00 +19°C° 0 mm 1 mps 754 mmHg 53%
    21:00 +15°C° 0 mm 0 mps 754 mmHg 56%
    22:00 +14°C° 0 mm 0 mps 754 mmHg 57%
    23:00 +15°C° 0 mm 1 mps 754 mmHg 58%

    24 August, Friday

    Time Temperature Precipitation Wind Pressure Humidity
    00:00 +15°C° 0 mm 1 mps 754 mmHg 58%
    01:00 +14°C° 0 mm 1 mps 754 mmHg 60%
    02:00 +14°C° 0 mm 1 mps 754 mmHg 61%
    03:00 +14°C° 0 mm 1 mps 754 mmHg 62%
    04:00 +14°C° 0 mm 1 mps 754 mmHg 63%
    05:00 +13°C° 0 mm 1 mps 754 mmHg 65%
    06:00 +13°C° 0 mm 1 mps 754 mmHg 66%
    07:00 +15°C° 0 mm 1 mps 754 mmHg 60%
    08:00 +19°C° 0 mm 1 mps 754 mmHg 55%
    09:00 +20°C° 0 mm 2 mps 754 mmHg 49%
    10:00 +21°C° 0 mm 2 mps 754 mmHg 46%
    11:00 +23°C° 0 mm 2 mps 754 mmHg 43%
    12:00 +24°C° 0 mm 2 mps 754 mmHg 40%
    13:00 +25°C° 0 mm 1 mps 754 mmHg 38%
    14:00 +25°C° 0 mm 1 mps 753 mmHg 37%
    15:00 +26°C° 0 mm 1 mps 753 mmHg 36%
    16:00 +25°C° 0 mm 1 mps 753 mmHg 39%
    17:00 +25°C° 0 mm 1 mps 752 mmHg 42%
    18:00 +22°C° 0 mm 0 mps 752 mmHg 45%
    19:00 +23°C° 0 mm 1 mps 752 mmHg 48%
    20:00 +21°C° 0 mm 1 mps 752 mmHg 50%
    21:00 +19°C° 0 mm 1 mps 752 mmHg 52%
    22:00 +18°C° 0 mm 1 mps 752 mmHg 54%
    23:00 +18°C° 0 mm 1 mps 752 mmHg 55%
    Show more